Regional Weather Roundup
Issued by NWS Charleston, SC

Current Version | Previous Version | Text Only | Print | Product List | Glossary Off
Versions: 1 2 3 4 5 6 7 8 9 10 11 12 13 14 15 16 17 18 19 20 21 22 23 24 25 26 27 28 29 30 31 32 33 34 35 36 37 38 39 40 41 42 43 44 45 46 47 48 49 50

481
ASUS42 KCHS 252227
RWRCHS

REGIONAL WEATHER ROUNDUP
NATIONAL WEATHER SERVICE CHARLESTON SC
600 PM EDT TUE APR 25 2017

NOTE: "FAIR" INDICATES FEW OR NO CLOUDS BELOW 12,000 FEET WITH NO
SIGNIFICANT WEATHER AND/OR OBSTRUCTIONS TO VISIBILITY.

NOT ALL STATIONS ARE QUALITY CONTROLLED. USE DATA WITH CAUTION...
ESPECIALLY DEWPOINT OBSERVATIONS.

SCZ027-030-031-034>040-042>050-252300-
...SOUTHEAST SOUTH CAROLINA...

CITY           SKY/WX    TMP DP  RH WIND       PRES   REMARKS
N CHARLESTON   MOSUNNY   74  59  59 W7        29.69S
WATERFRONT PRK   N/A     74  61  63 W7        29.68R
JOHNS ISLAND   CLOUDY    75  63  64 CALM      29.70S
PINOPOLIS        N/A     72  63  73 W8        29.61S
MONCKS CORNER  CLOUDY    72  59  64 CALM      29.70R
SUMMERVILLE    MOCLDY    73  61  64 CALM      29.71R
BEAUFORT MCAS  CLOUDY    77  61  57 VRB6      29.70S
BEAUFORT ARPT  CLOUDY    77  59  53 W8        29.70S
HILTON HEAD IS PTSUNNY   77  57  50 S9        29.72R
WALTERBORO     PTCLDY    73  59  60 W9        29.71R
ALLENDALE      CLOUDY    75  61  60 VRB5      29.70R

...SOUTHERN MIDLANDS AND PEE DEE...

CITY           SKY/WX    TMP DP  RH WIND       PRES   REMARKS
GEORGETOWN     CLOUDY    68  59  73 NW5       29.71R
KINGSTREE      CLOUDY    66  57  72 W7        29.70S
ORANGEBURG     CLOUDY    73  59  61 NW9       29.70S
BARNWELL       FAIR      79  61  53 W5        29.71R
AIKEN          FAIR      73  57  56 W6        29.75S
MANNING        CLOUDY    70  57  64 MISG      29.70S
COLUMBIA       PTSUNNY   73  57  57 N7        29.70R
SUMTER         CLOUDY    68  58  70 W8        29.69R
FLORENCE       CLOUDY    65  59  81 NW9       29.70R
MYRTLE BEACH   CLOUDY    66  59  77 NW9       29.71R
N MYRTLE BEACH CLOUDY    65  59  81 W9        29.68R

$$

GAZ063-065-086>088-099>101-113>116-118-119-134>141-150-252300-
...SOUTHEAST GEORGIA...

CITY           SKY/WX    TMP DP  RH WIND       PRES   REMARKS
SAVANNAH ARPT  PTSUNNY   80  56  43 W9        29.70S
HUNTER AAF     CLOUDY    79  63  56 W10       29.68R
FORT STEWART   MOSUNNY   81  57  43 W9        29.69S
STATESBORO     CLOUDY    79  58  48 NW9       29.71S
SYLVANIA       CLOUDY   N/A N/A N/A NW6       29.72R
CLAXTON        FAIR      80  62  53 SW13      29.71S

...CSRA...CENTRAL AND FAR SOUTHEAST GEORGIA...

CITY           SKY/WX    TMP DP  RH WIND       PRES   REMARKS
THOMSON        PTSUNNY   76  59  56 NW6       29.77R
AUGUSTA-BUSH   PTSUNNY   78  58  49 NW6       29.69F
AUGUSTA-DANIEL MOSUNNY   76  56  49 VRB5      29.71F
SWAINSBORO     FAIR      81  55  41 W8        29.71S
VIDALIA        MOSUNNY   81  55  41 W7        29.71S
EASTMAN        FAIR      82  39  21 W5        29.74S
HAZLEHURST     FAIR      81  57  43 W6        29.72R
ALMA           SUNNY     82  56  40 W9        29.72S
WAYCROSS       SUNNY     85  59  42 W12       29.72S
JESUP          FAIR      82  52  34 NW10      29.72S
BAXLEY         FAIR      82  61  47 W6        29.72R
BRUNSWICK      MOSUNNY   82  61  47 W9G17     29.72S
SAINT SIMONS   MOSUNNY   82  55  39 W9        29.71S

$$

SCZ027-028-034-036>038-045-046-048>050-GAZ119-141-252300-
...LAKE AND SUPPLEMENTAL COASTAL OBSERVATIONS...

STATION/POSITION TIME  TEMP    WIND        PRES    WAVE   SWELL
                       AIR SEA DIR/SP/G            HT/PER HT/PER/DIR
                 (UTC) (F)     (DEG/KT/KT) (MB)    (FT/S) (FT/S/D)
WINYAH BAY       2130   69     290/  6     1005.0S
LAKE MURRAY      2130   70     190/  5/  7 1005.4R
ACE BASIN NERRS  2145   75     280/  2     1006.0R
FORT PULASKI     2200   73 74  200/  6/  9 1006.1
SAPELO ISLAND    2145   80     280/  9     1006.0S

$$

ANZ835-935-AMZ111-154-330-350-352-354-370-450-454-472-252300-
...C-MAN AND BUOY OBSERVATIONS...

STATION/POSITION TIME  TEMP    WIND        PRES    WAVE   SWELL
                       AIR SEA DIR/SP/G            HT/PER HT/PER/DIR
                 (UTC) (F)     (DEG/KT/KT) (MB)    (FT/S) (FT/S/D)
BUOY 41004       2210   69 72  240/ 14/ 17 1005.8
BUOY 41008       2150   73 72  190/ 10/ 12 1005.9S   3/10   3/ 90/10
FOLLY BEACH CMAN 2200   70     210/ 13/ 15 1006.4R
CAPERS NEARSHORE 2208   76 71  280/ 10/ 14 1005.4R
FRIPP NEARSHORE  2208   70 71  200/ 14/ 17 1005.6R


STATION/POSITION TIME  TEMP    WIND        PRES    WAVE   SWELL
                       AIR SEA DIR/SP/G            HT/PER HT/PER/DIR
                 (UTC) (F)     (DEG/KT/KT) (MB)    (FT/S) (FT/S/D)
5E ST. MARYS GA  2200      74                N/A     2/ 9   2/ 90/11
FRYING PAN BUOY  2210   67 75  250/ 17/ 21 1004.8
BUOY 41025       2150   73 78  220/ 12/ 16 1002.9R   7/11   7/140/11
CAPE LOOKOUT NC  2200   68     220/ 10/ 13 1003.1R
BUOY 41002       2150   73 75  230/ 19/ 23 1006.7R   9/ 7
BUOY 41010       2210   73 78  270/ 12/ 17 1009.4
ST AUGUSTINE FL  2200   81 74  220/  7/  9 1008.1R


$$




USA.gov is the U.S. government's official web portal to all federal, state and local government web resources and services.